This is the latest recevied weather packets stored in our database for station/object KR4ELZ. If no packets are shown the sender has not sent any weather packets the latest 10 day(s).
| Time | Temp. | Humidity | Pressure | Rain* | Wind** | Luminosity | Snow |
|---|---|---|---|---|---|---|---|
| 1777444884 | 17.22° C | 99% | 1011.4 hPa | 0 mm | - | 0 W/m² | - |
| 1777444579 | 17.22° C | 99% | 1011.3 hPa | 0 mm | - | 0 W/m² | - |
| 1777444276 | 17.22° C | 99% | 1011.2 hPa | 0 mm | - | 0 W/m² | - |
| 1777443972 | 17.22° C | 99% | 1011.1 hPa | 0 mm | - | 0 W/m² | - |
| 1777443669 | 17.22° C | 99% | 1011 hPa | 0 mm | - | 0 W/m² | - |
| 1777443368 | 17.22° C | 99% | 1010.9 hPa | 0 mm | - | 0 W/m² | - |
| 1777443067 | 17.22° C | 99% | 1010.9 hPa | 0 mm | - | 0 W/m² | - |
| 1777442763 | 17.22° C | 99% | 1010.8 hPa | 0 mm | - | 0 W/m² | - |
| 1777442459 | 17.22° C | 99% | 1010.8 hPa | 0 mm | - | 0 W/m² | - |
| 1777442155 | 17.22° C | 99% | 1010.8 hPa | 0 mm | - | 0 W/m² | - |
| 1777441851 | 17.22° C | 99% | 1011 hPa | 0 mm | - | 0 W/m² | - |
| 1777441546 | 17.22° C | 99% | 1011.1 hPa | 0 mm | - | 0 W/m² | - |
| 1777441243 | 17.22° C | 99% | 1011.3 hPa | 0 mm | - | 0 W/m² | - |
| 1777440938 | 17.22° C | 99% | 1011.3 hPa | 0 mm | - | 0 W/m² | - |
| 1777440633 | 17.22° C | 99% | 1011.4 hPa | 0 mm | - | 0 W/m² | - |
| 1777440330 | 17.22° C | 99% | 1011.9 hPa | 0 mm | - | 0 W/m² | - |
| 1777440026 | 17.22° C | 99% | 1012.1 hPa | 0 mm | - | 0 W/m² | - |
| 1777439721 | 17.22° C | 99% | 1012.1 hPa | 0 mm | - | 0 W/m² | - |
| 1777439418 | 17.22° C | 99% | 1012 hPa | 0 mm | - | 0 W/m² | - |
| 1777439113 | 17.22° C | 99% | 1012.1 hPa | 0 mm | - | 0 W/m² | - |
| 1777438810 | 17.22° C | 99% | 1012.6 hPa | 1.78 mm | - | 0 W/m² | - |
| 1777438507 | 17.22° C | 99% | 1012.6 hPa | 12.7 mm | - | 0 W/m² | - |
| 1777438203 | 17.22° C | 99% | 1011.4 hPa | 24.64 mm | - | 0 W/m² | - |
| 1777437899 | 17.22° C | 99% | 1012.9 hPa | 26.92 mm | - | 0 W/m² | - |
| 1777437595 | 17.78° C | 99% | 1013.9 hPa | 26.42 mm | - | 0 W/m² | - |
* Rain latest hour (hover to see other rain measurements)
** Current wind speed in m/s (hover to see current wind gust speed)